Location: Bouillancy
(49.1149°N, 2.9308°E)
Time: 07:24:39
(UTC+00:00)

SL-14 R/B - Pass Details

Date: 30 September 2020
Orbit: 519 x 554 km, 82.4° (Epoch: 29 October)

Event Time Altitude Azimuth Distance (km) Brightness Sun altitude
Rises 19:03:39 0° 348° (NNW) 2,703 7.2 -16.3°
Reaches altitude 10° 19:05:49 10° 347° (NNW) 1,812 6.3 -16.7°
Maximum altitude 19:09:47 74° 262° (W) 571 3.4 -17.3°
Drops below altitude 10° 19:13:46 10° 178° (S) 1,815 5.8 -17.9°
Enters shadow 19:14:23 - 177° (S) 2,068 6.1 -18.0°
